リニア彗星

C/2007 U1 ( LINEAR )

English version
Home page
Updated on August 11, 2020

---------------------------------------------------------------------

・ プロフィール

発見日 2007年10月19日
発見光度 19.4等
発見者 Lincoln Laboratory Near-Earth Asteroid Research project

・ 写真集

・ 軌道要素

Epoch 2008 Aug. 2.0 TT = JDT 2454680.5                                          
T 2008 Aug. 7.05024 TT                                  Rudenko                 
q   3.3292061            (2000.0)            P               Q                  
z  -0.0004453      Peri.    0.92767     +0.65361325     +0.69915082             
 +/-0.0000008      Node    50.04333     +0.69191936     -0.70716122             
e   1.0014826      Incl.  157.78685     +0.30665505     +0.10540934             
From 767 observations 2007 Oct. 19-2009 Nov. 18, mean residual 0".6.            

・ 星図

・ 光度変化

        m1 = 3.2 + 5 logΔ + 17.5 log r(t - 75)

---------------------------------------------------------------------

軌道要素はM.P.E.C. 2020-P19に掲載されたものです。
星図はステラナビゲータ Ver.8 (アストロアーツ) で作成したものです。
光度グラフはComet for Windowsで作成したものです。

---------------------------------------------------------------------

Copyright(C) Seiichi Yoshida (comet@aerith.net). All rights reserved.